Home   Weather   Firozpur   Past weeks

Flag for India Past Weather in Firozpur, Punjab, India — Yesterday and Last 2 Weeks

Now
48 °F

Fog.


Feels Like: 48 °F
Forecast: 52 / 77 °F
Wind: No wind

Location: Lahore Airport

Current Time: Dec 8, 2016 at 7:46:41 am

Latest Report: Dec 8, 2016 at 7:00 am


Visibility: 0 mi

Pressure: 30.01 "Hg

Humidity: 100%

Dew Point: 48 °F

Location of FirozpurLocation

Past Weather in Firozpur — Graph

°F

Firozpur Temperature Yesterday

Maximum temperature yesterday: 79 °F (at 4:25 pm)
Minimum temperature yesterday: 48 °F (at 7:25 am)
Average temperature yesterday: 64 °F

High & Low Weather Summary for the Past Weeks

 TemperatureHumidityPressure
High82 °F (Nov 25, 2:55 pm)100% (Dec 2, 2:55 am)30.18 "Hg (Dec 2, 2:55 am)
Low46 °F (Dec 3, 7:55 am)17% (Nov 28, 2:25 pm)29.89 "Hg (Nov 23, 5:55 am)
Average65 °F61%30.03 "Hg
* Reported Nov 23 5:55 am — Dec 8 5:30 am, Firozpur, Weather by CustomWeather, © 2016

Note: Actual official high and low records may vary slightly from our data, if they occured in-between our weather recording intervals... More about our weather records

Advertising

Firozpur Weather History for the Previous 24 Hours

Scroll right to see more
 ConditionsComfort  
Time TempWeatherWind HumidityBarometerVisibility
5:30 am
Thu, Dec 8
48 °FFog.No wind100%30.01 "Hg0 mi
5:00 am50 °FFog.No wind94%30.01 "Hg0 mi
4:30 am50 °FFog.No wind100%30.01 "Hg0 mi
3:55 am50 °FFog.No wind100%30.01 "Hg0 mi
3:25 am52 °FFog.No wind88%30.01 "Hg1 mi
2:55 am54 °FFog.No wind82%30.01 "Hg1 mi
2:25 am54 °FFog.No wind82%30.01 "Hg1 mi
1:55 am55 °FFog.No wind82%30.01 "Hg1 mi
1:29 am55 °FFog.No wind82%30.01 "Hg1 mi
12:59 am57 °FFog.No wind82%30.04 "Hg1 mi
12:25 am57 °FFog.No wind82%30.04 "Hg1 mi
11:55 pm
Wed, Dec 7
59 °FClear.No wind77%30.04 "Hg1 mi
11:25 pm61 °FClear.No wind83%30.04 "Hg1 mi
10:25 pm63 °FClear.3 mph77%30.04 "Hg1 mi
9:25 pm64 °FClear.No wind68%30.04 "Hg1 mi
8:25 pm68 °FClear.No wind64%30.01 "Hg1 mi
7:55 pm70 °FClear.No wind60%30.01 "Hg1 mi
7:25 pm70 °FClear.No wind60%30.01 "Hg1 mi
6:55 pm70 °FClear.No wind57%30.01 "Hg1 mi
6:25 pm73 °FHaze.No wind47%30.01 "Hg1 mi
5:55 pm73 °FClear.No wind47%29.98 "Hg1 mi
4:55 pm79 °FHaze.No wind42%29.98 "Hg1 mi
4:25 pm79 °FHaze.No wind42%29.98 "Hg1 mi
3:55 pm77 °FHaze.3 mph42%29.98 "Hg1 mi
3:25 pm77 °FHaze.3 mph42%29.98 "Hg1 mi
2:55 pm77 °FHaze.6 mph42%30.01 "Hg1 mi
2:25 pm77 °FHaze.6 mph42%30.01 "Hg1 mi
1:55 pm75 °FHaze.5 mph47%30.04 "Hg1 mi
1:25 pm73 °FClear.6 mph50%30.04 "Hg1 mi
12:55 pm73 °FClear.3 mph50%30.07 "Hg1 mi
12:25 pm72 °FClear.3 mph53%30.07 "Hg1 mi
11:55 am68 °FClear.3 mph56%30.09 "Hg1 mi
11:25 am64 °FClear.No wind64%30.09 "Hg1 mi
10:55 am61 °FClear.No wind68%30.09 "Hg1 mi
10:25 am59 °FClear.No wind72%30.09 "Hg1 mi
9:55 am57 °FFog.No wind77%30.09 "Hg1 mi
9:25 am55 °FFog.No wind82%30.09 "Hg1 mi
8:55 am54 °FFog.No wind88%30.09 "Hg1 mi
8:25 am50 °FFog.No wind94%30.09 "Hg1 mi
7:25 am48 °FFog.No wind94%30.07 "Hg1 mi
Weather by CustomWeather, © 2016

See weather overviewHow to use our weather pages